Upstream stations:
Downstream station:
SHEF ID: WATO2 North Canadian River blw Weavers
STATION TYPE:
Regulating: Stage = 13.00, Flow = 1086
PRECIP STAGE RIV-FLOW BAT-LOAD
in ft cfs volt
Ccp-Rev Ccp-Rev Ccp-Rev Ccp-Rev
(US/Central)
01/17 00:00 0.00 7.49 17 12.57
01/17 01:00 0.00 7.48 16 12.57
01/17 02:00 0.00 7.47 16 12.57
01/17 03:00 0.00 7.47 16 12.49
01/17 04:00 0.00 7.48 16 12.49
01/17 05:00 0.00 7.50 17 12.49
01/17 06:00 0.00 7.53 19 12.41
01/17 07:00 0.00 7.53 19 12.41
01/17 08:00 0.00 7.54 19 12.41
01/17 09:00 0.00 7.54 19 12.41
01/17 10:00 0.00 7.53 19 12.41
01/17 11:00 0.00 7.53 19 12.41
01/17 12:00 0.00 7.55 20 12.41
01/17 13:00 0.00 7.55 20 12.57
01/17 14:00 0.00 7.53 19 13.60
01/17 15:00 0.00 7.52 18 13.53
01/17 16:00 0.00 7.53 19 13.53
01/17 17:00 0.00 7.53 19 13.44
01/17 18:00 0.00 7.53 19 13.05
01/17 19:00 0.00 7.54 19 12.81
01/17 20:00 0.00 7.53 19 12.73
01/17 21:00 0.00 7.53 19 12.73
01/17 22:00 0.00 7.53 19 12.65
01/17 23:00 0.00 7.53 19 12.65